| time (UTC) | temp F | wind direction | speed MPH | gust MPH | rain 1hr in | rain 24hr in | rain mn in | humidity % | barometer mb |
| 20260903040056 | 67 | 72 | 0.0 | 0.0 | 0.00 | 0.00 | 0.00 | 1 | 1018.9 |
| 20260903034555 | 67 | 72 | 0.0 | 0.0 | 0.00 | 0.00 | 0.00 | 1 | 1018.9 |
| 20260903033047 | 67 | 72 | 0.0 | 0.0 | 0.00 | 0.00 | 0.00 | 1 | 1018.3 |
| 20260903031600 | 67 | 72 | 0.0 | 0.0 | 0.00 | 0.00 | 0.00 | 1 | 1018.6 |
| 20260903030044 | 67 | 72 | 0.0 | 0.0 | 0.00 | 0.00 | 0.00 | 1 | 1018.4 |
| 20260903024538 | 67 | 72 | 0.0 | 0.0 | 0.00 | 0.00 | 0.00 | 1 | 1018.6 |
| 20260903023030 | 67 | 72 | 0.0 | 1.0 | 0.00 | 0.00 | 0.00 | 1 | 1018.6 |
| 20260903021525 | 67 | 72 | 0.0 | 0.0 | 0.00 | 0.00 | 0.00 | 1 | 1018.8 |
| 20260903020022 | 67 | 72 | 0.0 | 0.0 | 0.00 | 0.00 | 0.00 | 1 | 1019.1 |
| 20260903014524 | 68 | 72 | 0.0 | 0.0 | 0.00 | 0.00 | 0.00 | 1 | 1018.7 |
| 20260903013031 | 68 | 72 | 0.0 | 0.0 | 0.00 | 0.00 | 0.00 | 1 | 1018.7 |
| 20260903011520 | 68 | 72 | 0.0 | 0.0 | 0.00 | 0.00 | 0.00 | 1 | 1019.1 |
| 20260903010016 | 68 | 37 | 0.0 | 0.0 | 0.00 | 0.00 | 0.00 | 1 | 1019.3 |
| 20260903004516 | 68 | 37 | 0.0 | 0.0 | 0.00 | 0.00 | 0.00 | 1 | 1019.1 |
| 20260903003008 | 68 | 37 | 0.0 | 0.0 | 0.00 | 0.00 | 0.00 | 1 | 1019.3 |
| 20260903001502 | 68 | 37 | 0.0 | 1.0 | 0.00 | 0.00 | 0.00 | 1 | 1019.2 |
| 20260903000058 | 68 | 37 | 0.0 | 0.0 | 0.00 | 0.00 | 0.00 | 1 | 1019.0 |
| 20260902234602 | 68 | 37 | 0.0 | 0.0 | 0.00 | 0.00 | 0.00 | 1 | 1018.7 |
| 20260902233100 | 68 | 37 | 0.0 | 0.0 | 0.00 | 0.00 | 0.00 | 1 | 1018.7 |
| 20260902231650 | 68 | 37 | 0.0 | 1.0 | 0.00 | 0.00 | 0.00 | 1 | 1018.5 |
| 20260902230049 | 68 | 32 | 0.0 | 0.0 | 0.00 | 0.00 | 0.00 | 1 | 1018.6 |
| 20260902224541 | 68 | 32 | 0.0 | 1.0 | 0.00 | 0.00 | 0.00 | 1 | 1018.7 |
| 20260902223043 | 68 | 32 | 0.0 | 1.0 | 0.00 | 0.00 | 0.00 | 1 | 1019.1 |
| 20260902221532 | 68 | 68 | 0.0 | 0.0 | 0.00 | 0.00 | 0.00 | 1 | 1019.2 |
| 20260902220028 | 68 | 68 | 0.0 | 1.0 | 0.00 | 0.00 | 0.00 | 1 | 1019.4 |
| 20260902214528 | 68 | 86 | 0.0 | 1.0 | 0.00 | 0.00 | 0.00 | 1 | 1019.3 |
| 20260902213026 | 68 | 91 | 0.0 | 2.0 | 0.00 | 0.00 | 0.00 | 1 | 1019.5 |
| 20260902211514 | 68 | 91 | 0.0 | 1.0 | 0.00 | 0.00 | 0.00 | 1 | 1019.4 |
| 20260902210016 | 67 | 95 | 0.0 | 1.0 | 0.00 | 0.00 | 0.00 | 1 | 1019.3 |
| 20260902204506 | 67 | 75 | 0.0 | 1.0 | 0.00 | 0.00 | 0.00 | 1 | 1019.5 |
| 20260902203003 | 67 | 75 | 0.0 | 1.0 | 0.00 | 0.00 | 0.00 | 1 | 1019.4 |
| 20260902201502 | 67 | 75 | 0.0 | 1.0 | 0.00 | 0.00 | 0.00 | 1 | 1019.4 |
| 20260902200059 | 67 | 75 | 0.0 | 1.0 | 0.00 | 0.00 | 0.00 | 1 | 1019.3 |
| 20260902194553 | 67 | 74 | 0.0 | 1.0 | 0.00 | 0.00 | 0.00 | 1 | 1019.5 |
| 20260902193049 | 67 | 57 | 0.0 | 2.0 | 0.00 | 0.00 | 0.00 | 1 | 1019.8 |
| 20260902191551 | 67 | 98 | 1.0 | 3.0 | 0.00 | 0.00 | 0.00 | 1 | 1019.9 |
| 20260902190041 | 67 | 29 | 1.0 | 4.0 | 0.00 | 0.00 | 0.00 | 1 | 1020.2 |
| 20260902184547 | 67 | 93 | 0.0 | 1.0 | 0.00 | 0.00 | 0.00 | 1 | 1019.9 |
| 20260902183033 | 67 | 93 | 0.0 | 0.0 | 0.00 | 0.00 | 0.00 | 1 | 1020.0 |
| 20260902181528 | 67 | 93 | 0.0 | 0.0 | 0.00 | 0.00 | 0.00 | 1 | 1020.2 |
| 20260902180029 | 67 | 93 | 0.0 | 1.0 | 0.00 | 0.00 | 0.00 | 1 | 1020.3 |
| 20260902174520 | 67 | 82 | 0.0 | 1.0 | 0.00 | 0.00 | 0.00 | 1 | 1020.0 |
| 20260902173016 | 67 | 82 | 0.0 | 0.0 | 0.00 | 0.00 | 0.00 | 1 | 1020.2 |
| 20260902171511 | 67 | 82 | 0.0 | 1.0 | 0.00 | 0.00 | 0.00 | 1 | 1020.3 |
| 20260902170012 | 67 | 82 | 0.0 | 0.0 | 0.00 | 0.00 | 0.00 | 1 | 1020.6 |
| 20260902164505 | 66 | 82 | 0.0 | 2.0 | 0.00 | 0.00 | 0.00 | 1 | 1020.4 |
| 20260902163001 | 66 | 41 | 0.0 | 1.0 | 0.00 | 0.00 | 0.00 | 1 | 1020.7 |
| 20260902161601 | 66 | 41 | 0.0 | 1.0 | 0.00 | 0.00 | 0.00 | 1 | 1020.9 |
| 20260902160059 | 66 | 41 | 0.0 | 0.0 | 0.00 | 0.00 | 0.00 | 1 | 1020.8 |
| 20260902154549 | 66 | 41 | 0.0 | 1.0 | 0.00 | 0.00 | 0.00 | 1 | 1020.6 |
| 20260902153044 | 65 | 41 | 0.0 | 2.0 | 0.00 | 0.00 | 0.00 | 1 | 1020.6 |
| 20260902151544 | 66 | 49 | 0.0 | 2.0 | 0.00 | 0.00 | 0.00 | 1 | 1020.8 |
| 20260902150035 | 65 | 53 | 0.0 | 3.0 | 0.00 | 0.00 | 0.00 | 1 | 1020.9 |
| 20260902144538 | 65 | 46 | 0.0 | 2.0 | 0.00 | 0.00 | 0.00 | 1 | 1020.6 |
| 20260902143026 | 65 | 26 | 0.0 | 2.0 | 0.00 | 0.00 | 0.00 | 1 | 1020.5 |
| 20260902141521 | 65 | 69 | 0.0 | 2.0 | 0.00 | 0.00 | 0.00 | 1 | 1020.6 |
| 20260902140016 | 65 | 72 | 1.0 | 3.0 | 0.00 | 0.00 | 0.00 | 1 | 1020.5 |
| 20260902134513 | 65 | 64 | 0.0 | 3.0 | 0.00 | 0.00 | 0.00 | 1 | 1020.6 |
| 20260902133009 | 65 | 56 | 1.0 | 4.0 | 0.00 | 0.00 | 0.00 | 1 | 1020.6 |
| 20260902131504 | 64 | 74 | 0.0 | 2.0 | 0.00 | 0.00 | 0.00 | 1 | 1020.4 |
| 20260902130100 | 64 | 44 | 0.0 | 4.0 | 0.00 | 0.00 | 0.00 | 1 | 1020.3 |
| 20260902124557 | 64 | 65 | 0.0 | 2.0 | 0.00 | 0.00 | 0.00 | 1 | 1020.3 |
| 20260902123110 | 64 | 91 | 0.0 | 2.0 | 0.00 | 0.00 | 0.00 | 1 | 1020.1 |
| 20260902121556 | 64 | 39 | 0.0 | 2.0 | 0.00 | 0.00 | 0.00 | 1 | 1019.9 |
| 20260902120053 | 64 | 52 | 0.0 | 3.0 | 0.00 | 0.00 | 0.00 | 1 | 1020.0 |
| 20260902114538 | 64 | 70 | 0.0 | 2.0 | 0.00 | 0.00 | 0.00 | 1 | 1020.0 |
| 20260902113034 | 64 | 64 | 0.0 | 3.0 | 0.00 | 0.00 | 0.00 | 1 | 1019.8 |
| 20260902111537 | 64 | 53 | 1.0 | 4.0 | 0.00 | 0.00 | 0.00 | 1 | 1019.8 |
| 20260902110025 | 65 | 71 | 0.0 | 4.0 | 0.00 | 0.00 | 0.00 | 1 | 1019.8 |
| 20260902104521 | 65 | 41 | 0.0 | 3.0 | 0.00 | 0.00 | 0.00 | 1 | 1019.8 |
| 20260902103016 | 65 | 38 | 2.0 | 4.0 | 0.00 | 0.00 | 0.00 | 1 | 1019.8 |
| 20260902101512 | 65 | 64 | 0.0 | 1.0 | 0.00 | 0.00 | 0.00 | 1 | 1019.6 |
| 20260902100008 | 65 | 72 | 0.0 | 3.0 | 0.00 | 0.00 | 0.00 | 1 | 1019.4 |
| 20260902094503 | 65 | 78 | 0.0 | 3.0 | 0.00 | 0.00 | 0.00 | 1 | 1019.3 |
| 20260902093059 | 65 | 57 | 0.0 | 4.0 | 0.00 | 0.00 | 0.00 | 1 | 1019.3 |
| 20260902091558 | 65 | 68 | 0.0 | 2.0 | 0.00 | 0.00 | 0.00 | 1 | 1019.1 |
| 20260902090056 | 65 | 57 | 0.0 | 4.0 | 0.00 | 0.00 | 0.00 | 1 | 1019.1 |
| 20260902084551 | 65 | 29 | 1.0 | 3.0 | 0.00 | 0.00 | 0.00 | 1 | 1019.1 |
| 20260902083049 | 65 | 60 | 0.0 | 4.0 | 0.00 | 0.00 | 0.00 | 1 | 1018.8 |
| 20260902081543 | 65 | 81 | 0.0 | 3.0 | 0.00 | 0.00 | 0.00 | 1 | 1018.7 |
| 20260902080038 | 65 | 58 | 1.0 | 5.0 | 0.00 | 0.00 | 0.00 | 1 | 1018.6 |
| 20260902074538 | 65 | 54 | 0.0 | 1.0 | 0.00 | 0.00 | 0.00 | 1 | 1018.6 |
| 20260902073029 | 65 | 75 | 0.0 | 3.0 | 0.00 | 0.00 | 0.00 | 1 | 1018.5 |
| 20260902071524 | 65 | 65 | 0.0 | 1.0 | 0.00 | 0.00 | 0.00 | 1 | 1018.5 |
| 20260902070019 | 65 | 59 | 1.0 | 4.0 | 0.00 | 0.00 | 0.00 | 1 | 1018.4 |
| 20260902064515 | 65 | 63 | 0.0 | 4.0 | 0.00 | 0.00 | 0.00 | 1 | 1018.3 |
| 20260902063015 | 65 | 71 | 1.0 | 4.0 | 0.00 | 0.00 | 0.00 | 1 | 1018.2 |
| 20260902061507 | 66 | 54 | 1.0 | 4.0 | 0.00 | 0.00 | 0.00 | 1 | 1018.2 |
| 20260902060003 | 66 | 43 | 0.0 | 2.0 | 0.00 | 0.00 | 0.00 | 1 | 1018.5 |
| 20260902054559 | 66 | 66 | 1.0 | 6.0 | 0.00 | 0.00 | 0.00 | 1 | 1018.6 |
| 20260902053055 | 66 | 62 | 0.0 | 3.0 | 0.00 | 0.00 | 0.00 | 1 | 1018.6 |
| 20260902051551 | 66 | 83 | 0.0 | 3.0 | 0.00 | 0.00 | 0.00 | 1 | 1018.7 |
| 20260902050059 | 66 | 71 | 0.0 | 1.0 | 0.00 | 0.00 | 0.00 | 1 | 1018.8 |
| 20260902044541 | 66 | 77 | 0.0 | 3.0 | 0.00 | 0.00 | 0.00 | 1 | 1018.6 |
| 20260902043045 | 67 | 68 | 0.0 | 4.0 | 0.00 | 0.00 | 0.00 | 1 | 1018.3 |
| 20260902041533 | 67 | 67 | 0.0 | 1.0 | 0.00 | 0.00 | 0.00 | 1 | 1018.4 |